| time (UTC) | temp F | wind direction | speed MPH | gust MPH | rain 1hr in | rain 24hr in | rain mn in | humidity % | barometer mb |
| 20260906170033 | 83 | 217 | 0.0 | 5.0 | 0.00 | 0.00 | 0.00 | 79 | 1018.1 |
| 20260906164533 | 83 | 268 | 2.0 | 7.0 | 0.00 | 0.00 | 0.00 | 77 | 1018.1 |
| 20260906163031 | 82 | 283 | 1.0 | 9.0 | 0.00 | 0.00 | 0.00 | 79 | 1017.9 |
| 20260906161528 | 81 | 293 | 1.0 | 5.0 | 0.00 | 0.00 | 0.00 | 81 | 1018.0 |
| 20260906160008 | 80 | 239 | 2.0 | 8.0 | 0.00 | 0.00 | 0.00 | 82 | 1018.2 |
| 20260906154511 | 79 | 135 | 0.0 | 5.0 | 0.00 | 0.00 | 0.00 | 84 | 1018.3 |
| 20260906153013 | 79 | 135 | 0.0 | 5.0 | 0.00 | 0.00 | 0.00 | 85 | 1018.4 |
| 20260906151504 | 78 | 135 | 1.0 | 5.0 | 0.00 | 0.00 | 0.00 | 85 | 1018.4 |
| 20260906150016 | 77 | 135 | 0.0 | 6.0 | 0.00 | 0.00 | 0.00 | 86 | 1018.5 |
| 20260906144507 | 77 | 135 | 0.0 | 3.0 | 0.00 | 0.00 | 0.00 | 89 | 1018.5 |
| 20260906143003 | 76 | 135 | 0.0 | 3.0 | 0.00 | 0.00 | 0.00 | 90 | 1018.4 |
| 20260906141505 | 75 | 135 | 1.0 | 5.0 | 0.00 | 0.00 | 0.00 | 91 | 1018.6 |
| 20260906140003 | 74 | 135 | 1.0 | 3.0 | 0.00 | 0.00 | 0.00 | 91 | 1018.6 |
| 20260906134508 | 74 | 135 | 0.0 | 4.0 | 0.00 | 0.00 | 0.00 | 92 | 1018.6 |
| 20260906133006 | 74 | 135 | 0.0 | 5.0 | 0.00 | 0.00 | 0.00 | 92 | 1018.5 |
| 20260906131522 | 73 | 135 | 0.0 | 2.0 | 0.00 | 0.00 | 0.00 | 92 | 1018.4 |
| 20260906130009 | 73 | 135 | 0.0 | 3.0 | 0.00 | 0.00 | 0.00 | 92 | 1018.7 |
| 20260906124504 | 73 | 135 | 0.0 | 3.0 | 0.00 | 0.00 | 0.00 | 92 | 1018.4 |
| 20260906123011 | 72 | 135 | 0.0 | 2.0 | 0.00 | 0.00 | 0.00 | 91 | 1018.1 |
| 20260906121513 | 72 | 135 | 0.0 | 3.0 | 0.00 | 0.00 | 0.00 | 91 | 1017.9 |
| 20260906120007 | 72 | 135 | 0.0 | 2.0 | 0.00 | 0.00 | 0.00 | 91 | 1017.9 |
| 20260906114513 | 72 | 135 | 0.0 | 3.0 | 0.00 | 0.00 | 0.00 | 91 | 1017.4 |
| 20260906113011 | 73 | 135 | 0.0 | 4.0 | 0.00 | 0.00 | 0.00 | 91 | 1017.2 |
| 20260906111510 | 73 | 135 | 0.0 | 5.0 | 0.00 | 0.00 | 0.00 | 91 | 1017.3 |
| 20260906110009 | 73 | 135 | 0.0 | 2.0 | 0.00 | 0.00 | 0.00 | 90 | 1017.2 |
| 20260906104517 | 73 | 135 | 0.0 | 0.0 | 0.00 | 0.00 | 0.00 | 90 | 1017.3 |
| 20260906103010 | 73 | 135 | 0.0 | 2.0 | 0.00 | 0.00 | 0.00 | 90 | 1017.6 |
| 20260906101531 | 73 | 135 | 0.0 | 2.0 | 0.00 | 0.00 | 0.00 | 90 | 1017.3 |
| 20260906100015 | 74 | 135 | 0.0 | 2.0 | 0.00 | 0.00 | 0.00 | 89 | 1017.3 |
| 20260906094531 | 74 | 135 | 0.0 | 5.0 | 0.00 | 0.00 | 0.00 | 90 | 1017.3 |
| 20260906093006 | 74 | 135 | 0.0 | 2.0 | 0.00 | 0.00 | 0.00 | 89 | 1017.3 |
| 20260906091503 | 74 | 135 | 0.0 | 4.0 | 0.00 | 0.00 | 0.00 | 89 | 1017.1 |
| 20260906090011 | 74 | 135 | 1.0 | 3.0 | 0.00 | 0.00 | 0.00 | 89 | 1016.8 |
| 20260906084512 | 75 | 135 | 1.0 | 5.0 | 0.00 | 0.00 | 0.00 | 89 | 1016.6 |
| 20260906083004 | 75 | 135 | 0.0 | 4.0 | 0.00 | 0.00 | 0.00 | 89 | 1016.6 |
| 20260906081515 | 75 | 135 | 2.0 | 5.0 | 0.00 | 0.00 | 0.00 | 89 | 1016.7 |
| 20260906080006 | 75 | 135 | 0.0 | 6.0 | 0.00 | 0.00 | 0.00 | 89 | 1016.4 |
| 20260906074506 | 75 | 135 | 0.0 | 6.0 | 0.00 | 0.00 | 0.00 | 89 | 1016.4 |
| 20260906073004 | 76 | 135 | 1.0 | 5.0 | 0.00 | 0.00 | 0.00 | 89 | 1016.5 |
| 20260906071504 | 76 | 135 | 0.0 | 8.0 | 0.00 | 0.00 | 0.00 | 89 | 1016.6 |
| 20260906070006 | 77 | 135 | 0.0 | 3.0 | 0.00 | 0.00 | 0.00 | 89 | 1016.5 |
| 20260906064509 | 77 | 135 | 0.0 | 4.0 | 0.00 | 0.00 | 0.00 | 89 | 1016.6 |
| 20260906063010 | 78 | 135 | 0.0 | 2.0 | 0.00 | 0.00 | 0.00 | 89 | 1016.7 |
| 20260906061508 | 78 | 135 | 0.0 | 2.0 | 0.00 | 0.00 | 0.00 | 89 | 1016.7 |
| 20260906060004 | 79 | 135 | 0.0 | 5.0 | 0.00 | 0.00 | 0.00 | 88 | 1016.6 |
| 20260906054508 | 79 | 135 | 0.0 | 5.0 | 0.00 | 0.00 | 0.00 | 88 | 1016.6 |
| 20260906053006 | 79 | 135 | 0.0 | 6.0 | 0.00 | 0.00 | 0.00 | 87 | 1016.6 |
| 20260906051509 | 80 | 135 | 1.0 | 4.0 | 0.00 | 0.00 | 0.00 | 87 | 1016.6 |
| 20260906050009 | 80 | 135 | 0.0 | 4.0 | 0.00 | 0.00 | 0.00 | 86 | 1016.6 |
| 20260906044505 | 81 | 135 | 0.0 | 4.0 | 0.00 | 0.00 | 0.00 | 85 | 1016.5 |
| 20260906043010 | 81 | 135 | 0.0 | 4.0 | 0.00 | 0.00 | 0.00 | 84 | 1016.4 |
| 20260906041508 | 82 | 135 | 0.0 | 5.0 | 0.00 | 0.00 | 0.00 | 83 | 1016.2 |
| 20260906040007 | 82 | 135 | 0.0 | 4.0 | 0.00 | 0.00 | 0.00 | 83 | 1016.3 |
| 20260906034508 | 82 | 135 | 0.0 | 4.0 | 0.00 | 0.00 | 0.00 | 82 | 1016.0 |
| 20260906033008 | 83 | 135 | 0.0 | 2.0 | 0.00 | 0.00 | 0.00 | 81 | 1016.2 |
| 20260906031508 | 83 | 135 | 1.0 | 4.0 | 0.00 | 0.00 | 0.00 | 81 | 1016.0 |
| 20260906030008 | 83 | 135 | 0.0 | 5.0 | 0.00 | 0.00 | 0.00 | 80 | 1015.9 |
| 20260906024510 | 83 | 135 | 0.0 | 0.0 | 0.00 | 0.00 | 0.00 | 79 | 1015.7 |
| 20260906023021 | 84 | 135 | 0.0 | 4.0 | 0.00 | 0.00 | 0.00 | 79 | 1015.5 |
| 20260906021512 | 84 | 135 | 0.0 | 0.0 | 0.00 | 0.00 | 0.00 | 78 | 1015.2 |
| 20260906020016 | 84 | 135 | 0.0 | 0.0 | 0.00 | 0.00 | 0.00 | 77 | 1015.0 |
| 20260906014511 | 85 | 135 | 0.0 | 3.0 | 0.00 | 0.00 | 0.00 | 76 | 1014.9 |
| 20260906013028 | 85 | 135 | 1.0 | 4.0 | 0.00 | 0.00 | 0.00 | 75 | 1014.9 |
| 20260906011533 | 86 | 135 | 0.0 | 3.0 | 0.00 | 0.00 | 0.00 | 75 | 1014.8 |
| 20260906010015 | 86 | 135 | 0.0 | 5.0 | 0.00 | 0.00 | 0.00 | 74 | 1014.7 |
| 20260906004524 | 87 | 135 | 0.0 | 4.0 | 0.00 | 0.00 | 0.00 | 73 | 1014.6 |
| 20260906003027 | 87 | 135 | 0.0 | 4.0 | 0.00 | 0.00 | 0.00 | 72 | 1014.6 |
| 20260906001516 | 88 | 153 | 1.0 | 5.0 | 0.00 | 0.00 | 0.00 | 71 | 1014.5 |
| 20260906000016 | 88 | 223 | 0.0 | 5.0 | 0.00 | 0.00 | 0.00 | 70 | 1014.4 |
| 20260905234516 | 88 | 235 | 0.0 | 6.0 | 0.00 | 0.00 | 0.00 | 69 | 1014.4 |
| 20260905233030 | 89 | 252 | 1.0 | 8.0 | 0.00 | 0.00 | 0.00 | 69 | 1014.4 |
| 20260905231529 | 90 | 227 | 1.0 | 5.0 | 0.00 | 0.00 | 0.00 | 68 | 1014.3 |
| 20260905230031 | 90 | 206 | 1.0 | 7.0 | 0.00 | 0.00 | 0.00 | 67 | 1014.3 |
| 20260905224527 | 91 | 213 | 1.0 | 5.0 | 0.00 | 0.00 | 0.00 | 66 | 1014.3 |
| 20260905223013 | 91 | 210 | 2.0 | 7.0 | 0.00 | 0.00 | 0.00 | 66 | 1014.2 |
| 20260905221510 | 91 | 256 | 1.0 | 3.0 | 0.00 | 0.00 | 0.00 | 64 | 1014.3 |
| 20260905220005 | 91 | 175 | 2.0 | 5.0 | 0.00 | 0.00 | 0.00 | 64 | 1014.4 |
| 20260905214508 | 91 | 198 | 1.0 | 6.0 | 0.00 | 0.00 | 0.00 | 63 | 1014.5 |
| 20260905213008 | 92 | 211 | 2.0 | 6.0 | 0.00 | 0.00 | 0.00 | 62 | 1014.5 |
| 20260905211515 | 92 | 215 | 0.0 | 3.0 | 0.00 | 0.00 | 0.00 | 65 | 1014.6 |
| 20260905210005 | 92 | 286 | 0.0 | 10.0 | 0.00 | 0.00 | 0.00 | 63 | 1014.3 |
| 20260905204503 | 92 | 276 | 2.0 | 8.0 | 0.00 | 0.00 | 0.00 | 65 | 1014.2 |
| 20260905203008 | 91 | 302 | 2.0 | 5.0 | 0.00 | 0.00 | 0.00 | 66 | 1014.4 |
| 20260905201508 | 91 | 229 | 3.0 | 6.0 | 0.00 | 0.00 | 0.00 | 66 | 1014.6 |
| 20260905200030 | 91 | 211 | 3.0 | 9.0 | 0.00 | 0.00 | 0.00 | 65 | 1014.8 |
| 20260905194506 | 91 | 334 | 1.0 | 6.0 | 0.00 | 0.00 | 0.00 | 70 | 1015.0 |
| 20260905193008 | 90 | 214 | 3.0 | 8.0 | 0.00 | 0.00 | 0.00 | 69 | 1015.3 |
| 20260905191508 | 90 | 220 | 2.0 | 7.0 | 0.00 | 0.00 | 0.00 | 70 | 1015.6 |
| 20260905190008 | 90 | 170 | 2.0 | 6.0 | 0.00 | 0.00 | 0.00 | 71 | 1016.0 |
| 20260905184507 | 89 | 206 | 1.0 | 5.0 | 0.00 | 0.00 | 0.00 | 72 | 1016.1 |
| 20260905183008 | 89 | 321 | 0.0 | 6.0 | 0.00 | 0.00 | 0.00 | 73 | 1016.2 |
| 20260905181506 | 89 | 75 | 2.0 | 11.0 | 0.00 | 0.00 | 0.00 | 73 | 1016.2 |
| 20260905180016 | 89 | 99 | 2.0 | 8.0 | 0.00 | 0.00 | 0.00 | 73 | 1016.3 |
| 20260905174519 | 89 | 192 | 2.0 | 7.0 | 0.00 | 0.00 | 0.00 | 73 | 1016.4 |
| 20260905173014 | 89 | 36 | 2.0 | 6.0 | 0.00 | 0.00 | 0.00 | 72 | 1016.6 |
| 20260905171532 | 88 | 135 | 2.0 | 6.0 | 0.00 | 0.00 | 0.00 | 70 | 1016.6 |